Concordia, KS

7:34 AM CDT on March 28, 2017 (GMT -0500)
Blosser Municipal

Weather History for KCNK - April, 2014

Change the Weather History Date:

Friday, April 4, 2014

  Actual Average Record
Temperature  
Mean Temperature 41 °F 49 °F  
Max Temperature 49 °F 62 °F 90 °F (1929)
Min Temperature 33 °F 37 °F 18 °F (1899)
Degree Days  
Heating Degree Days 24 16  
Month to date heating degree days 101 65  
Since 1 July heating degree days 5379 4956  
Cooling Degree Days 0 0  
Month to date cooling degree days 0 0  
Year to date cooling degree days 0 1  
Moisture  
Dew Point 29 °F    
Average Humidity 71    
Maximum Humidity 96    
Minimum Humidity 46    
Precipitation  
Precipitation 0.00 in 0.07 in 2.25 in (2012)
Month to date precipitation 0.43 0.30  
Year to date precipitation 1.85 3.68  
Snow  
Snow 0.00 in 0.10 in 1.20 in (1957)
Month to date snowfall T 0.2  
Year to date snowfall 16.9 13.4  
Since 1 July snowfall 23.2 19.9  
Snow Depth 0.00 in    
Sea Level Pressure  
Sea Level Pressure 30.09 in    
Wind  
Wind Speed 12 mph (NW)    
Max Wind Speed 26 mph    
Max Gust Speed 37 mph    
Visibility 10 miles    
Events      
T = Trace of Precipitation, MM = Missing Value Source: NWS Daily Summary

Daily Weather History Graph

Daily Weather History Graph

Search for Another Location

Airport or City:

Trip Planner

Search our weather history database for the weather conditions in past years. The results will help you decide how hot, cold, wet, or windy it might be!

Date:

Astronomy

Apr. 04, 2014 Rise Set
Actual Time 7:10 AM CDT 7:57 PM CDT
Civil Twilight 6:42 AM CDT 8:24 PM CDT
Nautical Twilight 6:10 AM CDT 8:57 PM CDT
Astronomical Twilight 5:37 AM CDT 9:30 PM CDT
Moon 10:28 AM CDT (4/4) 12:16 AM CDT (4/4)
Length of Visible Light 13h 42m
Length of Day
12h 47m
Waxing Crescent, 25% of the Moon is Illuminated
Apr 4
Waxing Crescent
Apr 7
First Quarter
Apr 15
Full
Apr 22
Last Quarter
Apr 29
New

Hourly Weather History & Observations

Time (CDT) Temp. Windchill Dew Point Humidity Pressure Visibility Wind Dir Wind Speed Gust Speed Precip Events Conditions
12:22 AM 35.1 °F 24.8 °F 33.1 °F 92% 29.92 in 10.0 mi NW 17.3 mph 27.6 mph 0.00 in   Scattered Clouds
12:55 AM 34.0 °F 23.0 °F 32.0 °F 92% 29.96 in 10.0 mi WNW 18.4 mph - 0.00 in   Clear
1:55 AM 35.1 °F 25.2 °F 30.9 °F 85% 29.99 in 10.0 mi WNW 16.1 mph 24.2 mph N/A   Mostly Cloudy
2:26 AM 35.1 °F 25.2 °F 30.0 °F 82% 29.97 in 10.0 mi NW 16.1 mph 26.5 mph N/A   Mostly Cloudy
2:38 AM 35.1 °F 25.2 °F 30.0 °F 82% 29.97 in 10.0 mi WNW 16.1 mph 25.3 mph N/A   Scattered Clouds
2:55 AM 35.1 °F 24.5 °F 30.0 °F 82% 30.00 in 10.0 mi WNW 18.4 mph 23.0 mph N/A   Clear
3:55 AM 35.1 °F 25.5 °F 30.0 °F 82% 30.02 in 10.0 mi NW 15.0 mph - N/A   Overcast
4:11 AM 35.1 °F 23.0 °F 28.9 °F 78% 30.00 in 10.0 mi NNW 24.2 mph 33.4 mph N/A   Overcast
4:55 AM 35.1 °F 24.8 °F 28.0 °F 76% 30.04 in 10.0 mi NW 17.3 mph 31.1 mph N/A   Overcast
5:55 AM 34.0 °F 21.8 °F 27.0 °F 75% 30.06 in 10.0 mi NW 23.0 mph 28.8 mph N/A   Overcast
6:55 AM 34.0 °F 23.0 °F 27.0 °F 75% 30.07 in 10.0 mi NNW 18.4 mph 32.2 mph N/A   Overcast
7:55 AM 34.0 °F 24.2 °F 26.1 °F 73% 30.11 in 10.0 mi NNW 15.0 mph - N/A   Overcast
8:55 AM 34.0 °F 22.1 °F 26.1 °F 73% 30.13 in 10.0 mi NW 21.9 mph 29.9 mph N/A   Overcast
9:55 AM 35.1 °F 24.8 °F 26.1 °F 70% 30.16 in 10.0 mi NNW 17.3 mph 27.6 mph N/A   Overcast
10:55 AM 36.0 °F 26.3 °F 27.0 °F 70% 30.19 in 10.0 mi North 16.1 mph 24.2 mph N/A   Overcast
11:55 AM 37.0 °F 27.7 °F 27.0 °F 67% 30.20 in 10.0 mi NNW 16.1 mph 23.0 mph N/A   Overcast
12:55 PM 37.9 °F 30.5 °F 27.0 °F 65% 30.20 in 10.0 mi NW 11.5 mph - N/A   Overcast
1:55 PM 44.1 °F 38.1 °F 30.9 °F 60% 30.18 in 10.0 mi North 11.5 mph 18.4 mph N/A   Mostly Cloudy
2:55 PM 45.0 °F 38.9 °F 30.0 °F 56% 30.16 in 10.0 mi NW 12.7 mph - N/A   Mostly Cloudy
3:55 PM 46.9 °F - 30.0 °F 52% 30.14 in 10.0 mi North 8.1 mph - N/A   Partly Cloudy
4:55 PM 48.0 °F - 30.0 °F 50% 30.13 in 10.0 mi Variable 6.9 mph - N/A   Clear
5:55 PM 48.0 °F - 28.0 °F 46% 30.12 in 10.0 mi NNW 3.5 mph - N/A   Clear
6:55 PM 48.9 °F - 28.0 °F 44% 30.12 in 10.0 mi Calm Calm - N/A   Clear
7:55 PM 42.1 °F 40.2 °F 28.9 °F 60% 30.14 in 10.0 mi ESE 3.5 mph - N/A   Clear
8:55 PM 37.0 °F 33.3 °F 28.9 °F 73% 30.15 in 10.0 mi SE 4.6 mph - N/A   Clear
9:55 PM 34.0 °F 28.8 °F 28.0 °F 79% 30.16 in 10.0 mi SSE 5.8 mph - N/A   Clear
10:55 PM 34.0 °F 29.8 °F 28.9 °F 82% 30.16 in 10.0 mi SE 4.6 mph - N/A   Clear
11:55 PM 35.1 °F 29.3 °F 28.9 °F 78% 30.15 in 10.0 mi SSE 6.9 mph - N/A   Clear